{"data":{"norad_id":48554,"epoch":"2026-09-19T16:07:35.112288Z","epoch_age_seconds":108643,"freshness":"FRESH","line1":"1 48554U 21041B   26262.67193417  .00000651  00000+0  32752-4 0  9994","line2":"2 48554  53.1612 303.9500 0001220  68.0167 292.0964 15.31699277295007","mean_motion":15.31699277,"eccentricity":0.000122,"inclination_deg":53.1612,"raan_deg":303.95,"arg_perigee_deg":68.0167,"mean_anomaly_deg":292.0964,"bstar":3.2752e-5,"rev_number":29500,"period_min":94.013232337642,"perigee_km":469.90658719552,"apogee_km":471.57771370823,"semimajor_km":6848.8791504519,"source":"CELESTRAK","updated_at":"2026-09-20T09:00:39.132244Z"}}